TimeCST,TemperatureF,Dew PointF,Humidity,Sea Level PressureIn,VisibilityMPH,Wind Direction,Wind SpeedMPH,Gust SpeedMPH,PrecipitationIn,Events,Conditions,WindDirDegrees,DateUTC
12:54 AM,41.0,26.1,55,29.77,10.0,East,9.2,-,N/A,,Clear,80,2013-03-04 06:54:00
1:54 AM,37.9,26.1,62,29.75,10.0,ENE,6.9,-,N/A,,Clear,70,2013-03-04 07:54:00
2:54 AM,36.0,26.1,67,29.73,10.0,ENE,6.9,-,N/A,,Clear,70,2013-03-04 08:54:00
3:54 AM,35.1,26.1,70,29.72,10.0,ENE,8.1,-,N/A,,Clear,70,2013-03-04 09:54:00
4:54 AM,35.1,26.1,70,29.71,10.0,NE,5.8,-,N/A,,Clear,50,2013-03-04 10:54:00
5:54 AM,34.0,26.1,73,29.72,10.0,ENE,6.9,-,N/A,,Clear,70,2013-03-04 11:54:00
6:54 AM,34.0,26.1,73,29.70,10.0,East,4.6,-,N/A,,Clear,80,2013-03-04 12:54:00
7:54 AM,36.0,27.0,70,29.71,9.0,ENE,6.9,-,N/A,,Clear,70,2013-03-04 13:54:00
8:54 AM,37.0,28.0,70,29.71,10.0,East,5.8,-,N/A,,Clear,80,2013-03-04 14:54:00
9:54 AM,39.9,28.0,63,29.72,10.0,ESE,10.4,-,N/A,,Clear,120,2013-03-04 15:54:00
10:54 AM,43.0,28.0,56,29.70,10.0,ESE,6.9,-,N/A,,Clear,120,2013-03-04 16:54:00
11:54 AM,44.1,28.9,55,29.70,10.0,East,5.8,-,N/A,,Clear,80,2013-03-04 17:54:00
12:54 PM,46.0,30.0,54,29.69,10.0,ENE,3.5,-,N/A,,Clear,60,2013-03-04 18:54:00
1:54 PM,46.9,30.0,52,29.69,10.0,Calm,Calm,-,N/A,,Clear,0,2013-03-04 19:54:00
2:54 PM,46.0,30.0,54,29.70,10.0,East,10.4,-,N/A,,Clear,100,2013-03-04 20:54:00
3:54 PM,46.0,30.0,54,29.72,10.0,East,9.2,-,N/A,,Clear,80,2013-03-04 21:54:00
4:54 PM,45.0,30.0,56,29.75,10.0,ENE,8.1,-,N/A,,Clear,70,2013-03-04 22:54:00
5:54 PM,42.1,30.0,62,29.78,10.0,ENE,8.1,-,N/A,,Clear,60,2013-03-04 23:54:00
6:54 PM,43.0,30.0,60,29.83,10.0,NNW,4.6,-,N/A,,Clear,340,2013-03-05 00:54:00
7:54 PM,41.0,28.9,62,29.87,10.0,North,9.2,-,N/A,,Clear,350,2013-03-05 01:54:00
8:54 PM,39.9,28.9,65,29.91,10.0,North,6.9,-,N/A,,Clear,350,2013-03-05 02:54:00
9:54 PM,39.9,30.0,68,29.94,10.0,NW,10.4,-,N/A,,Overcast,320,2013-03-05 03:54:00
10:45 PM,37.4,32.0,81,29.94,8.0,NNW,12.7,20.7,0.00,Rain,Light Rain,330,2013-03-05 04:45:00
10:54 PM,37.9,32.0,79,29.96,7.0,NNW,11.5,-,0.00,,Overcast,330,2013-03-05 04:54:00
11:23 PM,37.4,32.0,81,29.95,5.0,NW,11.5,21.9,0.00,Rain,Light Rain,320,2013-03-05 05:23:00
11:54 PM,36.0,32.0,86,29.96,5.0,NW,9.2,16.1,0.00,Rain,Light Rain,320,2013-03-05 05:54:00